Van, Turkey

11:22 PM +03 on April 23, 2017 (GMT +0300)
Van

Weather History for LTCI - March, 2013

Change the Weather History Date:

Sunday, March 31, 2013

  Actual Average Record
Temperature  
Mean Temperature 41 °F -  
Max Temperature 53 °F 54 °F 62 °F (2001)
Min Temperature 29 °F 36 °F 17 °F (2003)
Degree Days  
Heating Degree Days 24    
Moisture  
Dew Point 33 °F    
Average Humidity 69    
Maximum Humidity 87    
Minimum Humidity 48    
Precipitation  
Precipitation 0.00 in 0.07 in - ()
Sea Level Pressure  
Sea Level Pressure 30.22 in    
Wind  
Wind Speed 3 mph ()    
Max Wind Speed 9 mph    
Max Gust Speed -    
Visibility 6.2 miles    
Events      
Averages and records for this station are not official NWS values.
T = Trace of Precipitation, MM = Missing Value Source: Averaged Metar Reports

Daily Weather History Graph

Daily Weather History Graph

Search for Another Location

Airport or City:

Trip Planner

Search our weather history database for the weather conditions in past years. The results will help you decide how hot, cold, wet, or windy it might be!

Date:

Astronomy

Mar. 31, 2013 Rise Set
Actual Time 5:53 AM EEST 6:29 PM EEST
Civil Twilight 5:26 AM EEST 6:55 PM EEST
Nautical Twilight 4:55 AM EEST 7:27 PM EEST
Astronomical Twilight 4:23 AM EEST 7:59 PM EEST
Moon 11:12 PM EEST (3/31) 8:24 AM EEST (3/31)
Length of Visible Light 13h 29m
Length of Day
12h 35m
Waning Gibbous, 80% of the Moon is Illuminated
Mar 31
Waning Gibbous
Apr 3
Last Quarter
Apr 10
New
Apr 18
First Quarter
Apr 25
Full

Hourly Weather History & Observations

Time (EEST) Temp. Windchill Dew Point Humidity Pressure Visibility Wind Dir Wind Speed Gust Speed Precip Events Conditions
12:50 AM 33.8 °F - 28.4 °F 81% 30.21 in 6.2 mi ENE 1.2 mph - N/A   Partly Cloudy
1:50 AM 33.8 °F - 30.2 °F 87% 30.21 in 6.2 mi East 2.3 mph - N/A   Partly Cloudy
2:00 AM 34 °F - 30 °F 79%  in 6 mi East 2.3 mph - -   Scattered Clouds
2:50 AM 32.0 °F 28.7 °F 28.4 °F 87% 30.21 in 6.2 mi ESE 3.5 mph - N/A   Partly Cloudy
4:50 AM 32.0 °F - 28.4 °F 87% 30.21 in 6.2 mi Variable 2.3 mph - N/A   Partly Cloudy
5:50 AM 30.2 °F - 26.6 °F 86% 30.21 in - Variable 2.3 mph - N/A   Clear
6:50 AM 35.6 °F - 30.2 °F 81% 30.21 in - ENE 2.3 mph - N/A   Clear
7:50 AM 44.6 °F - 30.2 °F 57% 30.21 in - Variable 2.3 mph - N/A   Clear
8:50 AM 44.6 °F 41.4 °F 32.0 °F 61% 30.24 in - WSW 5.8 mph - N/A   Clear
9:00 AM 44 °F - 32 °F 51%  in 7 mi WSW 5.8 mph - -  
9:50 AM 46.4 °F 41.9 °F 33.8 °F 62% 30.24 in - West 9.2 mph - N/A   Clear
10:50 AM 46.4 °F 43.5 °F 33.8 °F 62% 30.24 in 6.2 mi WSW 5.8 mph - N/A   Partly Cloudy
11:50 AM 48.2 °F - 37.4 °F 66% 30.24 in 6.2 mi West 8.1 mph - N/A   Partly Cloudy
12:50 PM 48.2 °F - 39.2 °F 71% 30.21 in 6.2 mi WSW 6.9 mph - N/A   Partly Cloudy
1:50 PM 48.2 °F - 39.2 °F 71% 30.21 in 6.2 mi WNW 5.8 mph - N/A   Partly Cloudy
2:50 PM 51.8 °F - 37.4 °F 58% 30.21 in 6.2 mi WSW 5.8 mph - N/A   Partly Cloudy
3:00 PM 51 °F - 37 °F 48%  in 6 mi WSW 5.8 mph - -   Scattered Clouds
3:50 PM 51.8 °F - 35.6 °F 54% 30.21 in 6.2 mi West 5.8 mph - N/A   Partly Cloudy
4:50 PM 51.8 °F - 35.6 °F 54% 30.21 in 6.2 mi SW 5.8 mph - N/A   Scattered Clouds
5:50 PM 48.2 °F - 39.2 °F 71% 30.21 in 6.2 mi SW 8.1 mph - N/A   Scattered Clouds
6:50 PM 44.6 °F 43.1 °F 37.4 °F 76% 30.21 in 6.2 mi Variable 3.5 mph - N/A   Partly Cloudy
7:50 PM 42.8 °F 39.3 °F 35.6 °F 76% 30.24 in 6.2 mi ENE 5.8 mph - N/A   Partly Cloudy
8:50 PM 42.8 °F - 30.2 °F 61% 30.24 in 6.2 mi Variable 2.3 mph - N/A   Partly Cloudy
9:00 PM 42 °F - 30 °F 51%  in 6 mi SSW 2.3 mph - -   Scattered Clouds
9:50 PM 39.2 °F - 32.0 °F 75% 30.24 in 6.2 mi Variable 2.3 mph - N/A   Partly Cloudy
10:50 PM 39.2 °F - 30.2 °F 70% 30.24 in 6.2 mi Variable 1.2 mph - N/A   Partly Cloudy
11:50 PM 37.4 °F - 30.2 °F 75% 30.24 in 6.2 mi Variable 1.2 mph - N/A   Partly Cloudy
12:50 AM 37.4 °F - 30.2 °F 75% 30.21 in 6.2 mi SSE 2.3 mph - N/A   Partly Cloudy